Grand Junction, CO

9:36 AM MST on January 19, 2017 (GMT -0700)
Walker

Weather History for KGJT - May, 2014

Change the Weather History Date:

Friday, May 16, 2014

  Actual Average Record
Temperature  
Mean Temperature 61 °F 62 °F  
Max Temperature 77 °F 76 °F 92 °F (1964)
Min Temperature 45 °F 47 °F 34 °F (1910)
Degree Days  
Heating Degree Days 4 5  
Month to date heating degree days 171 107  
Since 1 July heating degree days 6217 5541  
Cooling Degree Days 0 1  
Month to date cooling degree days 6 13  
Year to date cooling degree days 6 16  
Growing Degree Days 11 (Base 50)    
Moisture  
Dew Point 35 °F    
Average Humidity 42    
Maximum Humidity 66    
Minimum Humidity 18    
Precipitation  
Precipitation T in 0.03 in 0.96 in (1983)
Month to date precipitation 1.05 0.50  
Year to date precipitation 3.34 3.45  
Snow  
Snow 0.00 in 0.00 in 0.00 in (2015)
Month to date snowfall 0.0 0.1  
Since 1 July snowfall 25.7 19.1  
Snow Depth 0.00 in    
Sea Level Pressure  
Sea Level Pressure 29.97 in    
Wind  
Wind Speed 10 mph (ENE)    
Max Wind Speed 29 mph    
Max Gust Speed 39 mph    
Visibility 10 miles    
Events      
T = Trace of Precipitation, MM = Missing Value Source: NWS Daily Summary

Daily Weather History Graph

Daily Weather History Graph

Search for Another Location

Airport or City:

Trip Planner

Search our weather history database for the weather conditions in past years. The results will help you decide how hot, cold, wet, or windy it might be!

Date:

Astronomy

May. 16, 2014 Rise Set
Actual Time 6:00 AM MDT 8:21 PM MDT
Civil Twilight 5:29 AM MDT 8:51 PM MDT
Nautical Twilight 4:52 AM MDT 9:29 PM MDT
Astronomical Twilight 4:11 AM MDT 10:10 PM MDT
Moon 10:31 PM MDT (5/16) 7:44 AM MDT (5/16)
Length of Visible Light 15h 21m
Length of Day
14h 21m
Waning Gibbous, 95% of the Moon is Illuminated
May 16
Waning Gibbous
May 21
Last Quarter
May 28
New
Jun 5
First Quarter
Jun 12
Full

Hourly Weather History & Observations

Time (MDT) Temp. Dew Point Humidity Pressure Visibility Wind Dir Wind Speed Gust Speed Precip Events Conditions
12:53 AM 51.1 °F 39.0 °F 63% 30.05 in 10.0 mi Calm Calm - N/A   Clear
1:53 AM 48.2 °F 37.4 °F 66% 30.17 in 10.0 mi East 6.9 mph - N/A   Clear
2:53 AM 51.1 °F 35.1 °F 54% 30.03 in 10.0 mi ESE 10.4 mph - N/A   Clear
3:53 AM 50.0 °F 35.1 °F 57% 30.01 in 10.0 mi ESE 11.5 mph - N/A   Clear
4:53 AM 46.9 °F 35.1 °F 63% 30.02 in 10.0 mi ESE 11.5 mph - N/A   Clear
5:53 AM 46.9 °F 35.1 °F 63% 30.01 in 10.0 mi East 8.1 mph - N/A   Clear
6:53 AM 48.0 °F 37.0 °F 66% 30.03 in 10.0 mi SE 8.1 mph - N/A   Clear
7:53 AM 52.0 °F 36.0 °F 54% 30.04 in 10.0 mi SSE 13.8 mph - N/A   Mostly Cloudy
8:53 AM 57.0 °F 37.0 °F 47% 30.04 in 10.0 mi SE 5.8 mph - 0.00 in   Clear
9:53 AM 61.0 °F 34.0 °F 36% 30.03 in 10.0 mi SSE 4.6 mph - N/A   Clear
10:53 AM 64.9 °F 34.0 °F 32% 30.00 in 10.0 mi Calm Calm - N/A   Partly Cloudy
11:53 AM 68.0 °F 32.0 °F 26% 29.98 in 10.0 mi NE 4.6 mph - N/A   Partly Cloudy
12:53 PM 71.1 °F 35.1 °F 27% 29.94 in 10.0 mi Variable 4.6 mph - N/A   Clear
1:53 PM 73.4 °F 32.0 °F 22% 30.08 in 10.0 mi NW 15.0 mph 25.3 mph N/A   Mostly Cloudy
2:53 PM 75.9 °F 28.9 °F 18% 29.89 in 10.0 mi NW 5.8 mph - N/A   Clear
3:53 PM 75.9 °F 30.0 °F 19% 29.87 in 10.0 mi NNW 9.2 mph 18.4 mph N/A   Partly Cloudy
4:53 PM 73.0 °F 30.0 °F 20% 29.89 in 9.0 mi NNW 24.2 mph 39.1 mph N/A   Mostly Cloudy
5:53 PM 73.9 °F 33.1 °F 22% 29.86 in 10.0 mi WNW 9.2 mph - N/A   Clear
6:53 PM 72.0 °F 32.0 °F 23% 29.88 in 10.0 mi NW 18.4 mph 25.3 mph N/A   Overcast
7:53 PM 69.1 °F 36.0 °F 30% 29.88 in 10.0 mi NNE 11.5 mph - N/A   Mostly Cloudy
8:53 PM 64.4 °F 37.4 °F 37% 30.02 in 10.0 mi ENE 21.9 mph 28.8 mph N/A   Clear
9:53 PM 63.0 °F 39.0 °F 41% 29.87 in 10.0 mi ENE 13.8 mph - N/A   Partly Cloudy
10:53 PM 63.0 °F 39.0 °F 41% 29.86 in 10.0 mi South 6.9 mph - N/A   Clear
11:53 PM 57.0 °F 39.9 °F 53% 29.86 in 10.0 mi ENE 3.5 mph - N/A   Clear